User: anonymous   Login
Location: Unspecified
(0.0000°N, 0.0000°E)
Time: 12:47:16
(UTC+02:00)
Language:

YAOGAN 3 - Orbit

View from above orbital plane
View from above orbital plane
View from above satellite
View from above satellite

Ground track
Ground track

The orbit data is extracted from the following two-line orbital elements,

1 32289U 07055A   17142.90162010 +.00000155 +00000-0 +26951-4 0  9993
2 32289 097.9994 144.9128 0001749 074.6088 285.5337 14.80811177514995
Epoch (UTC): 22 May 2017 21:38:19
Eccentricity: 0.0001749
inclination: 97.9994°
perigee height: 625 km
apogee height: 628 km
right ascension of ascending node: 144.9128°
argument of perigee: 74.6088°
revolutions per day: 14.80811177
mean anomaly at epoch: 285.5337°
orbit number at epoch: 51499

The dashed part of the orbit path shows where the satellite is in the earth's shadow,  

DLR